Location: Haliburton Scout Reserve
(45.0900°N, 78.3200°W)
Time: 13:40:35
(UTC-04:00)

Courier 1B Rocket - Pass Details

Date: 07 February 2023
Orbit: 920 x 1202 km, 28.2° (Epoch: 27 March)

Event Time Altitude Azimuth Distance (km) Brightness Sun altitude
Rises 15:37:01 0° 226° (SW) 3,675 9.9 16.0°
Reaches altitude 10° 15:40:57 10° 204° (SSW) 2,678 8.8 15.5°
Maximum altitude 15:44:23 15° 171° (S) 2,303 7.5 15.0°
Drops below altitude 10° 15:47:44 10° 139° (SE) 2,620 7.3 14.6°
Sets 15:51:31 0° 116° (ESE) 3,548 7.7 14.1°
